����������;��������(kWh)
2019-03-25 00:00;77,6
2019-03-25 00:15;76,95
2019-03-25 00:30;78,9
2019-03-25 00:45;78,8
2019-03-25 01:00;77,55
2019-03-25 01:15;77,35
2019-03-25 01:30;76,65
2019-03-25 01:45;77,8
2019-03-25 02:00;77,1
2019-03-25 02:15;76,6
2019-03-25 02:30;75,8
2019-03-25 02:45;77,65
2019-03-25 03:00;79,55
2019-03-25 03:15;79,75
2019-03-25 03:30;77,65
2019-03-25 03:45;78,6
2019-03-25 04:00;78,4
2019-03-25 04:15;75,9
2019-03-25 04:30;77,75
2019-03-25 04:45;76,7
2019-03-25 05:00;77,35
2019-03-25 05:15;75,7
2019-03-25 05:30;76,5
2019-03-25 05:45;77,3
2019-03-25 06:00;79,25
2019-03-25 06:15;78
2019-03-25 06:30;74,75
2019-03-25 06:45;74,1
2019-03-25 07:00;74,7
2019-03-25 07:15;75,45
2019-03-25 07:30;73,95
2019-03-25 07:45;76,2
2019-03-25 08:00;76
2019-03-25 08:15;76,55
2019-03-25 08:30;79,5
2019-03-25 08:45;79,4
2019-03-25 09:00;80,25
2019-03-25 09:15;81,85
2019-03-25 09:30;85,9
2019-03-25 09:45;83,2
2019-03-25 10:00;81,3
2019-03-25 10:15;84,8
2019-03-25 10:30;80,75
2019-03-25 10:45;78,85
2019-03-25 11:00;80,35
2019-03-25 11:15;84,35
2019-03-25 11:30;86,8
2019-03-25 11:45;84,75
2019-03-25 12:00;85,3
2019-03-25 12:15;86
2019-03-25 12:30;89,6
2019-03-25 12:45;91,05
2019-03-25 13:00;88,15
2019-03-25 13:15;88,75
2019-03-25 13:30;93,35
2019-03-25 13:45;91,2
2019-03-25 14:00;88,25
2019-03-25 14:15;90,3
2019-03-25 14:30;93,35
2019-03-25 14:45;92,55
2019-03-25 15:00;97,15
2019-03-25 15:15;92,2
2019-03-25 15:30;88,4
2019-03-25 15:45;86
2019-03-25 16:00;85,45
2019-03-25 16:15;84,05
2019-03-25 16:30;88,4
2019-03-25 16:45;83,15
2019-03-25 17:00;88
2019-03-25 17:15;85,25
2019-03-25 17:30;82,9
2019-03-25 17:45;89,4
2019-03-25 18:00;91,3
2019-03-25 18:15;95,5
2019-03-25 18:30;91,3
2019-03-25 18:45;92,9
2019-03-25 19:00;94,4
2019-03-25 19:15;102,6
2019-03-25 19:30;101,8
2019-03-25 19:45;101
2019-03-25 20:00;106,35
2019-03-25 20:15;105,2
2019-03-25 20:30;103,85
2019-03-25 20:45;101,3
2019-03-25 21:00;101,55
2019-03-25 21:15;93,8
2019-03-25 21:30;92,25
2019-03-25 21:45;92,4
2019-03-25 22:00;85,6
2019-03-25 22:15;85,35
2019-03-25 22:30;86,1
2019-03-25 22:45;83,85
2019-03-25 23:00;84,45
2019-03-25 23:15;85,4
2019-03-25 23:30;85,85
2019-03-25 23:45;83,15
2019-03-26 00:00;83,4
2019-03-26 00:15;82,6
2019-03-26 00:30;83,6
2019-03-26 00:45;83,2
2019-03-26 01:00;80,85
2019-03-26 01:15;81
2019-03-26 01:30;80,9
2019-03-26 01:45;81,35
2019-03-26 02:00;79,2
2019-03-26 02:15;77,75
2019-03-26 02:30;78,6
2019-03-26 02:45;79,55
2019-03-26 03:00;81,35
2019-03-26 03:15;80,15
2019-03-26 03:30;79,85
2019-03-26 03:45;79,55
2019-03-26 04:00;80,1
2019-03-26 04:15;78,45
2019-03-26 04:30;80,4
2019-03-26 04:45;81,15
2019-03-26 05:00;83,65
2019-03-26 05:15;84
2019-03-26 05:30;81,1
2019-03-26 05:45;82,5
2019-03-26 06:00;81,5
2019-03-26 06:15;78,65
2019-03-26 06:30;79,85
2019-03-26 06:45;79,5
2019-03-26 07:00;83,05
2019-03-26 07:15;90,15
2019-03-26 07:30;93,55
2019-03-26 07:45;94,65
2019-03-26 08:00;112,95
2019-03-26 08:15;126,05
2019-03-26 08:30;138,4
2019-03-26 08:45;143,7
2019-03-26 09:00;145,3
2019-03-26 09:15;145,25
2019-03-26 09:30;157,35
2019-03-26 09:45;167,5
2019-03-26 10:00;221,7
2019-03-26 10:15;166,55
2019-03-26 10:30;180,55
2019-03-26 10:45;173,9
2019-03-26 11:00;178,75
2019-03-26 11:15;186,3
2019-03-26 11:30;182,4
2019-03-26 11:45;187,4
2019-03-26 12:00;179,55
2019-03-26 12:15;195,8
2019-03-26 12:30;189,8
2019-03-26 12:45;192,9
2019-03-26 13:00;197,25
2019-03-26 13:15;190,7
2019-03-26 13:30;196,65
2019-03-26 13:45;182,35
2019-03-26 14:00;185,6
2019-03-26 14:15;187,65
2019-03-26 14:30;192,7
2019-03-26 14:45;181,5
2019-03-26 15:00;176,25
2019-03-26 15:15;174,35
2019-03-26 15:30;168,95
2019-03-26 15:45;171,1
2019-03-26 16:00;160,95
2019-03-26 16:15;168,95
2019-03-26 16:30;160
2019-03-26 16:45;162,25
2019-03-26 17:00;155,5
2019-03-26 17:15;158,1
2019-03-26 17:30;148,35
2019-03-26 17:45;151,15
2019-03-26 18:00;153
2019-03-26 18:15;139
2019-03-26 18:30;140
2019-03-26 18:45;142,6
2019-03-26 19:00;142,5
2019-03-26 19:15;150,35
2019-03-26 19:30;145,15
2019-03-26 19:45;141,9
2019-03-26 20:00;135,6
2019-03-26 20:15;129,3
2019-03-26 20:30;131,6
2019-03-26 20:45;125,9
2019-03-26 21:00;126,9
2019-03-26 21:15;127,2
2019-03-26 21:30;117,5
2019-03-26 21:45;109,6
2019-03-26 22:00;107,6
2019-03-26 22:15;108,5
2019-03-26 22:30;108,2
2019-03-26 22:45;112,4
2019-03-26 23:00;110,8
2019-03-26 23:15;106,55
2019-03-26 23:30;109,15
2019-03-26 23:45;110
2019-03-27 00:00;103,35
2019-03-27 00:15;102,9
2019-03-27 00:30;105,25
2019-03-27 00:45;103,2
2019-03-27 01:00;102,4
2019-03-27 01:15;100,35
2019-03-27 01:30;100,4
2019-03-27 01:45;101
2019-03-27 02:00;102,95
2019-03-27 02:15;101,25
2019-03-27 02:30;99,5
2019-03-27 02:45;100,85
2019-03-27 03:00;103,05
2019-03-27 03:15;102,45
2019-03-27 03:30;100,85
2019-03-27 03:45;100,55
2019-03-27 04:00;102,1
2019-03-27 04:15;102,55
2019-03-27 04:30;99,05
2019-03-27 04:45;97,4
2019-03-27 05:00;99,5
2019-03-27 05:15;100,55
2019-03-27 05:30;96,75
2019-03-27 05:45;96,95
2019-03-27 06:00;97,9
2019-03-27 06:15;96,3
2019-03-27 06:30;93,5
2019-03-27 06:45;92,9
2019-03-27 07:00;94,3
2019-03-27 07:15;98,1
2019-03-27 07:30;147,45
2019-03-27 07:45;109,8
2019-03-27 08:00;118,35
2019-03-27 08:15;122,65
2019-03-27 08:30;126,7
2019-03-27 08:45;128,3
2019-03-27 09:00;131,6
2019-03-27 09:15;138,85
2019-03-27 09:30;140,15
2019-03-27 09:45;148,6
2019-03-27 10:00;151,3
2019-03-27 10:15;149,1
2019-03-27 10:30;159,35
2019-03-27 10:45;163,35
2019-03-27 11:00;168,4
2019-03-27 11:15;168,3
2019-03-27 11:30;172,1
2019-03-27 11:45;172,3
2019-03-27 12:00;172,6
2019-03-27 12:15;169,8
2019-03-27 12:30;168,6
2019-03-27 12:45;170,7
2019-03-27 13:00;173,95
2019-03-27 13:15;168,55
2019-03-27 13:30;168,7
2019-03-27 13:45;166,95
2019-03-27 14:00;173,05
2019-03-27 14:15;170,3
2019-03-27 14:30;168,15
2019-03-27 14:45;170,2
2019-03-27 15:00;160,65
2019-03-27 15:15;152,95
2019-03-27 15:30;155,5
2019-03-27 15:45;148,25
2019-03-27 16:00;152
2019-03-27 16:15;146,75
2019-03-27 16:30;151,7
2019-03-27 16:45;144,25
2019-03-27 17:00;152,15
2019-03-27 17:15;150,05
2019-03-27 17:30;154,4
2019-03-27 17:45;146,15
2019-03-27 18:00;146,8
2019-03-27 18:15;139,15
2019-03-27 18:30;138,9
2019-03-27 18:45;140,8
2019-03-27 19:00;136,6
2019-03-27 19:15;130
2019-03-27 19:30;129,5
2019-03-27 19:45;126,35
2019-03-27 20:00;126,25
2019-03-27 20:15;120,25
2019-03-27 20:30;122,3
2019-03-27 20:45;121,3
2019-03-27 21:00;116,85
2019-03-27 21:15;116,8
2019-03-27 21:30;114,4
2019-03-27 21:45;110,4
2019-03-27 22:00;109,9
2019-03-27 22:15;105,55
2019-03-27 22:30;102,7
2019-03-27 22:45;100,45
2019-03-27 23:00;105,2
2019-03-27 23:15;98,75
2019-03-27 23:30;102,15
2019-03-27 23:45;104,35
2019-03-28 00:00;96,75
2019-03-28 00:15;94,8
2019-03-28 00:30;96,25
2019-03-28 00:45;97,45
2019-03-28 01:00;95,4
2019-03-28 01:15;95,55
2019-03-28 01:30;95,3
2019-03-28 01:45;95,7
2019-03-28 02:00;97,05
2019-03-28 02:15;94,9
2019-03-28 02:30;95,8
2019-03-28 02:45;94,75
2019-03-28 03:00;91,35
2019-03-28 03:15;95,85
2019-03-28 03:30;90,45
2019-03-28 03:45;89,9
2019-03-28 04:00;90,75
2019-03-28 04:15;90,1
2019-03-28 04:30;89,3
2019-03-28 04:45;88,65
2019-03-28 05:00;94
2019-03-28 05:15;95,4
2019-03-28 05:30;92,35
2019-03-28 05:45;90,25
2019-03-28 06:00;90,75
2019-03-28 06:15;90,3
2019-03-28 06:30;88,4
2019-03-28 06:45;88,9
2019-03-28 07:00;91,55
2019-03-28 07:15;94,3
2019-03-28 07:30;144,2
2019-03-28 07:45;107,2
2019-03-28 08:00;134,7
2019-03-28 08:15;118,2
2019-03-28 08:30;134,5
2019-03-28 08:45;142,9
2019-03-28 09:00;170,2
2019-03-28 09:15;166,3
2019-03-28 09:30;183,4
2019-03-28 09:45;186,55
2019-03-28 10:00;189,35
2019-03-28 10:15;208,95
2019-03-28 10:30;206,65
2019-03-28 10:45;217,45
2019-03-28 11:00;227,35
2019-03-28 11:15;228,9
2019-03-28 11:30;247,85
2019-03-28 11:45;236,3
2019-03-28 12:00;239,15
2019-03-28 12:15;242,2
2019-03-28 12:30;245,35
2019-03-28 12:45;249,45
2019-03-28 13:00;242,8
2019-03-28 13:15;249,1
2019-03-28 13:30;234,7
2019-03-28 13:45;244,6
2019-03-28 14:00;234,6
2019-03-28 14:15;239,85
2019-03-28 14:30;222,25
2019-03-28 14:45;226,25
2019-03-28 15:00;214,7
2019-03-28 15:15;221,95
2019-03-28 15:30;209,25
2019-03-28 15:45;207,35
2019-03-28 16:00;194,8
2019-03-28 16:15;192,55
2019-03-28 16:30;185,1
2019-03-28 16:45;186,15
2019-03-28 17:00;200,5
2019-03-28 17:15;192,15
2019-03-28 17:30;192,75
2019-03-28 17:45;184,35
2019-03-28 18:00;184,3
2019-03-28 18:15;178,4
2019-03-28 18:30;177,3
2019-03-28 18:45;167
2019-03-28 19:00;165,45
2019-03-28 19:15;166,8
2019-03-28 19:30;155,8
2019-03-28 19:45;146,8
2019-03-28 20:00;144,3
2019-03-28 20:15;145,7
2019-03-28 20:30;135,65
2019-03-28 20:45;137,55
2019-03-28 21:00;135,55
2019-03-28 21:15;127,55
2019-03-28 21:30;128,2
2019-03-28 21:45;129,1
2019-03-28 22:00;121,3
2019-03-28 22:15;114,2
2019-03-28 22:30;110,8
2019-03-28 22:45;110,25
2019-03-28 23:00;111,05
2019-03-28 23:15;109,25
2019-03-28 23:30;113,75
2019-03-28 23:45;115,35
2019-03-29 00:00;104,95
2019-03-29 00:15;107,7
2019-03-29 00:30;111,5
2019-03-29 00:45;109,05
2019-03-29 01:00;109,4
2019-03-29 01:15;110,8
2019-03-29 01:30;111,85
2019-03-29 01:45;112,2
2019-03-29 02:00;115,5
2019-03-29 02:15;116,05
2019-03-29 02:30;111,8
2019-03-29 02:45;114,05
2019-03-29 03:00;117,5
2019-03-29 03:15;115,2
2019-03-29 03:30;109,8
2019-03-29 03:45;108,5
2019-03-29 04:00;108,7
2019-03-29 04:15;107,05
2019-03-29 04:30;108,5
2019-03-29 04:45;110,9
2019-03-29 05:00;109,85
2019-03-29 05:15;106,7
2019-03-29 05:30;105,9
2019-03-29 05:45;105,9
2019-03-29 06:00;107,85
2019-03-29 06:15;106,4
2019-03-29 06:30;105,45
2019-03-29 06:45;102,8
2019-03-29 07:00;105,5
2019-03-29 07:15;106,5
2019-03-29 07:30;163,25
2019-03-29 07:45;121,75
2019-03-29 08:00;133,15
2019-03-29 08:15;133,35
2019-03-29 08:30;158,2
2019-03-29 08:45;177,15
2019-03-29 09:00;190,25
2019-03-29 09:15;197,1
2019-03-29 09:30;215,55
2019-03-29 09:45;231,6
2019-03-29 10:00;228,25
2019-03-29 10:15;245,1
2019-03-29 10:30;254,3
2019-03-29 10:45;259,3
2019-03-29 11:00;268,25
2019-03-29 11:15;270,05
2019-03-29 11:30;278,6
2019-03-29 11:45;286,7
2019-03-29 12:00;285,65
2019-03-29 12:15;292,15
2019-03-29 12:30;288,85
2019-03-29 12:45;290,4
2019-03-29 13:00;286
2019-03-29 13:15;288,5
2019-03-29 13:30;276
2019-03-29 13:45;292,4
2019-03-29 14:00;286,4
2019-03-29 14:15;283,15
2019-03-29 14:30;286,6
2019-03-29 14:45;269,5
2019-03-29 15:00;273,6
2019-03-29 15:15;259,55
2019-03-29 15:30;257,4
2019-03-29 15:45;241,95
2019-03-29 16:00;239,4
2019-03-29 16:15;224,5
2019-03-29 16:30;226
2019-03-29 16:45;212,2
2019-03-29 17:00;209,1
2019-03-29 17:15;189,95
2019-03-29 17:30;196,4
2019-03-29 17:45;182,85
2019-03-29 18:00;187,8
2019-03-29 18:15;176,55
2019-03-29 18:30;173,1
2019-03-29 18:45;175,25
2019-03-29 19:00;159,6
2019-03-29 19:15;155,65
2019-03-29 19:30;148,95
2019-03-29 19:45;148,05
2019-03-29 20:00;143,55
2019-03-29 20:15;138,2
2019-03-29 20:30;135,35
2019-03-29 20:45;135,25
2019-03-29 21:00;128,2
2019-03-29 21:15;123,55
2019-03-29 21:30;122,9
2019-03-29 21:45;118,35
2019-03-29 22:00;111,4
2019-03-29 22:15;110,05
2019-03-29 22:30;111
2019-03-29 22:45;103,7
2019-03-29 23:00;109,9
2019-03-29 23:15;103,9
2019-03-29 23:30;104,8
2019-03-29 23:45;107,6
2019-03-30 00:00;95,7
2019-03-30 00:15;97,55
2019-03-30 00:30;97,85
2019-03-30 00:45;95,05
2019-03-30 01:00;95,5
2019-03-30 01:15;95,75
2019-03-30 01:30;94,6
2019-03-30 01:45;94,45
2019-03-30 02:00;94,55
2019-03-30 02:15;93,35
2019-03-30 02:30;93,4
2019-03-30 02:45;93
2019-03-30 03:00;94,3
2019-03-30 03:15;94,75
2019-03-30 03:30;90,55
2019-03-30 03:45;91,6
2019-03-30 04:00;92,35
2019-03-30 04:15;88,65
2019-03-30 04:30;88,45
2019-03-30 04:45;90,5
2019-03-30 05:00;92,25
2019-03-30 05:15;89,4
2019-03-30 05:30;88,2
2019-03-30 05:45;87,45
2019-03-30 06:00;87,25
2019-03-30 06:15;88,1
2019-03-30 06:30;83,7
2019-03-30 06:45;80,8
2019-03-30 07:00;81,25
2019-03-30 07:15;81,25
2019-03-30 07:30;82,3
2019-03-30 07:45;82,45
2019-03-30 08:00;81,4
2019-03-30 08:15;84,05
2019-03-30 08:30;82,5
2019-03-30 08:45;83,2
2019-03-30 09:00;82,1
2019-03-30 09:15;85,25
2019-03-30 09:30;88,95
2019-03-30 09:45;89,4
2019-03-30 10:00;87,95
2019-03-30 10:15;88,55
2019-03-30 10:30;85,95
2019-03-30 10:45;82,75
2019-03-30 11:00;82,95
2019-03-30 11:15;84,05
2019-03-30 11:30;84,9
2019-03-30 11:45;92,9
2019-03-30 12:00;93,25
2019-03-30 12:15;95
2019-03-30 12:30;95,85
2019-03-30 12:45;100,5
2019-03-30 13:00;96,15
2019-03-30 13:15;97,45
2019-03-30 13:30;96,65
2019-03-30 13:45;103,45
2019-03-30 14:00;98,75
2019-03-30 14:15;102,2
2019-03-30 14:30;105,8
2019-03-30 14:45;108,35
2019-03-30 15:00;105,95
2019-03-30 15:15;104,35
2019-03-30 15:30;105,25
2019-03-30 15:45;107,85
2019-03-30 16:00;111,4
2019-03-30 16:15;106,15
2019-03-30 16:30;113,45
2019-03-30 16:45;114,75
2019-03-30 17:00;112,15
2019-03-30 17:15;116,65
2019-03-30 17:30;113,2
2019-03-30 17:45;121,2
2019-03-30 18:00;125,2
2019-03-30 18:15;126,8
2019-03-30 18:30;129,25
2019-03-30 18:45;128,4
2019-03-30 19:00;127,95
2019-03-30 19:15;120,9
2019-03-30 19:30;124,95
2019-03-30 19:45;118,7
2019-03-30 20:00;121,4
2019-03-30 20:15;124,4
2019-03-30 20:30;118,4
2019-03-30 20:45;118,45
2019-03-30 21:00;114,75
2019-03-30 21:15;114,95
2019-03-30 21:30;112,25
2019-03-30 21:45;105,6
2019-03-30 22:00;101,7
2019-03-30 22:15;101,4
2019-03-30 22:30;100,35
2019-03-30 22:45;96,75
2019-03-30 23:00;106,7
2019-03-30 23:15;103,45
2019-03-30 23:30;104,35
2019-03-30 23:45;108
2019-03-31 00:00;97
2019-03-31 00:15;95,7
2019-03-31 00:30;94,65
2019-03-31 00:45;94,85
2019-03-31 01:00;93,9
2019-03-31 01:15;90,6
2019-03-31 01:30;92,8
2019-03-31 01:45;97,5
2019-03-31 02:00;96,1
2019-03-31 02:15;95,45
2019-03-31 02:30;92,9
2019-03-31 02:45;93,15
2019-03-31 03:00;96,05
2019-03-31 03:15;0
2019-03-31 03:30;0
2019-03-31 03:45;0
2019-03-31 04:00;0
2019-03-31 04:15;93,85
2019-03-31 04:30;93,65
2019-03-31 04:45;91,8
2019-03-31 05:00;91,85
2019-03-31 05:15;94
2019-03-31 05:30;91,7
2019-03-31 05:45;88,35
2019-03-31 06:00;88,7
2019-03-31 06:15;88,55
2019-03-31 06:30;88,8
2019-03-31 06:45;86,95
2019-03-31 07:00;88,3
2019-03-31 07:15;85,85
2019-03-31 07:30;86,6
2019-03-31 07:45;87,95
2019-03-31 08:00;91,2
2019-03-31 08:15;87,95
2019-03-31 08:30;89,85
2019-03-31 08:45;89,75
2019-03-31 09:00;91,25
2019-03-31 09:15;90,55
2019-03-31 09:30;88,15
2019-03-31 09:45;88,65
2019-03-31 10:00;84,4
2019-03-31 10:15;88,6
2019-03-31 10:30;86,5
2019-03-31 10:45;85
2019-03-31 11:00;84,5
2019-03-31 11:15;89,35
2019-03-31 11:30;93,75
2019-03-31 11:45;90,75
2019-03-31 12:00;94,4
2019-03-31 12:15;96,55
2019-03-31 12:30;100,75
2019-03-31 12:45;101
2019-03-31 13:00;101,25
2019-03-31 13:15;101,5
2019-03-31 13:30;104
2019-03-31 13:45;103,4
2019-03-31 14:00;106,4
2019-03-31 14:15;107,35
2019-03-31 14:30;110,85
2019-03-31 14:45;104,65
2019-03-31 15:00;102,55
2019-03-31 15:15;99,85
2019-03-31 15:30;96,95
2019-03-31 15:45;96,6
2019-03-31 16:00;97,8
2019-03-31 16:15;93,65
2019-03-31 16:30;95
2019-03-31 16:45;94,95
2019-03-31 17:00;92,9
2019-03-31 17:15;93
2019-03-31 17:30;99,2
2019-03-31 17:45;97,2
2019-03-31 18:00;102,4
2019-03-31 18:15;102,05
2019-03-31 18:30;101,35
2019-03-31 18:45;103,95
2019-03-31 19:00;107,25
2019-03-31 19:15;107,45
2019-03-31 19:30;107,9
2019-03-31 19:45;105,55
2019-03-31 20:00;103,5
2019-03-31 20:15;108,2
2019-03-31 20:30;112,1
2019-03-31 20:45;109,6
2019-03-31 21:00;106,85
2019-03-31 21:15;105,15
2019-03-31 21:30;106,6
2019-03-31 21:45;104,6
2019-03-31 22:00;98,45
2019-03-31 22:15;98,55
2019-03-31 22:30;97,95
2019-03-31 22:45;95,8
2019-03-31 23:00;104,95
2019-03-31 23:15;97,5
2019-03-31 23:30;99,9
2019-03-31 23:45;107,4

